Location: Unspecified
(39.0670°S, 0.0000°E)
Time: 02:46:29
(UTC+00:00)

Envisat - Pass Details

Date: 30 June 2019
Orbit: 764 x 766 km, 98.1° (Epoch: 22 July)

Event Time Altitude Azimuth Distance (km) Brightness Sun altitude
Exits shadow 18:11:41 17° 70° (ENE) 1,854 4.5 -15.8°
Drops below altitude 10° 18:14:02 10° 43° (NE) 2,311 5.2 -16.3°
Sets 18:16:59 0° 25° (NNE) 3,227 6.1 -16.8°
